DLH4239 EDDN-ELLX

Flight info

Callsign DLH4239
Flight time N/A
Altitude 24000
Route SUKAD1G/28 SUKAD Y165 EDUDU Y101 OSBIT Z118 KOSEK Z104 ODVUX T894 BITBU Z110 BETEX
Aircraft A333/H-SDE3GHIJ2J3J5M1RVWXY/LB2D1

Departure

Time 2026-05-04 12:59
Airport Nuremberg Airport (EDDN)

Arrival

Time N/A
Airport Luxembourg-Findel International Airport (ELLX)
Time Latitude Longitude Altitude Speed Heading
2026-05-04 12:35 49.49528 11.07794 1029 ft 0 kts 188°
2026-05-04 12:52 49.49535 11.07795 1030 ft 2 kts 187°
2026-05-04 12:52 49.49551 11.07798 1030 ft 2 kts 188°
2026-05-04 12:53 49.49560 11.07800 1030 ft 2 kts 187°
2026-05-04 12:53 49.49574 11.07798 1030 ft 2 kts 144°
2026-05-04 12:53 49.49584 11.07781 1030 ft 2 kts 110°
2026-05-04 12:53 49.49587 11.07770 1029 ft 1 kts 96°
2026-05-04 12:54 49.49587 11.07766 1029 ft 0 kts 97°
2026-05-04 12:55 49.49583 11.07811 1030 ft 7 kts 97°
2026-05-04 12:55 49.49572 11.07928 1032 ft 14 kts 99°
2026-05-04 12:55 49.49552 11.08119 1034 ft 22 kts 99°
2026-05-04 12:56 49.49529 11.08366 1035 ft 7 kts 76°
2026-05-04 12:56 49.49547 11.08390 1036 ft 7 kts 37°
2026-05-04 12:56 49.49577 11.08404 1036 ft 1 kts
2026-05-04 12:56 49.49603 11.08454 1038 ft 9 kts 72°
2026-05-04 12:57 49.49603 11.08580 1040 ft 14 kts 97°
2026-05-04 12:57 49.49585 11.08756 1045 ft 18 kts 99°
2026-05-04 12:57 49.49562 11.08972 1049 ft 22 kts 99°
2026-05-04 12:57 49.49533 11.09247 1052 ft 27 kts 97°
2026-05-04 12:58 49.49534 11.09329 1052 ft 7 kts 80°
2026-05-04 12:58 49.49568 11.09434 1052 ft 14 kts 56°
2026-05-04 12:58 49.49652 11.09568 1053 ft 19 kts 15°
2026-05-04 12:58 49.49701 11.09481 1053 ft 11 kts 277°
2026-05-04 12:59 49.49742 11.09109 1053 ft 71 kts 281°
2026-05-04 12:59 49.49852 11.07987 1034 ft 139 kts 279°
2026-05-04 12:59 49.50036 11.06251 1112 ft 182 kts 280°
2026-05-04 12:59 49.50237 11.04359 1865 ft 177 kts 281°
2026-05-04 13:00 49.50447 11.02539 2642 ft 178 kts 275°
2026-05-04 13:00 49.50535 11.00814 3703 ft 153 kts 278°
2026-05-04 13:00 49.50681 10.99227 4353 ft 153 kts 279°
2026-05-04 13:00 49.50859 10.97427 4484 ft 195 kts 279°
2026-05-04 13:01 49.51096 10.95078 4896 ft 248 kts 278°
2026-05-04 13:01 49.51369 10.92417 5710 ft 252 kts 278°
2026-05-04 13:01 49.51612 10.89954 7004 ft 237 kts 277°
2026-05-04 13:01 49.51872 10.87243 6945 ft 279 kts 277°
2026-05-04 13:02 49.52164 10.84214 6990 ft 286 kts 277°
2026-05-04 13:02 49.52455 10.81198 6971 ft 280 kts 277°
2026-05-04 13:02 49.52733 10.78285 6966 ft 277 kts 277°
2026-05-04 13:02 49.53012 10.75355 6971 ft 278 kts 277°
2026-05-04 13:03 49.53294 10.72398 6972 ft 277 kts 277°
2026-05-04 13:03 49.53579 10.69389 7247 ft 292 kts 277°
2026-05-04 13:03 49.53862 10.66427 8491 ft 281 kts 277°
2026-05-04 13:03 49.54140 10.63484 9463 ft 281 kts 276°
2026-05-04 13:04 49.54421 10.60484 10289 ft 286 kts 276°
2026-05-04 13:04 49.54702 10.57485 11161 ft 288 kts 276°
2026-05-04 13:04 49.55149 10.54476 11994 ft 295 kts 291°
2026-05-04 13:04 49.56358 10.51905 12789 ft 304 kts 316°
2026-05-04 13:05 49.58147 10.50188 13611 ft 309 kts 329°
2026-05-04 13:05 49.60009 10.48500 14392 ft 312 kts 326°
2026-05-04 13:05 49.61840 10.46759 15161 ft 316 kts 326°
2026-05-04 13:05 49.63709 10.44961 15917 ft 320 kts 326°
2026-05-04 13:06 49.65609 10.43125 16660 ft 323 kts 325°
2026-05-04 13:06 49.67486 10.41183 17401 ft 326 kts 323°
2026-05-04 13:06 49.69343 10.39263 18101 ft 329 kts 323°
2026-05-04 13:06 49.71263 10.37275 18812 ft 333 kts 323°
2026-05-04 13:07 49.73175 10.35296 19500 ft 336 kts 323°
2026-05-04 13:07 49.75131 10.33268 20182 ft 339 kts 322°
2026-05-04 13:07 49.77087 10.31237 20852 ft 343 kts 322°
2026-05-04 13:07 49.79051 10.29195 21490 ft 346 kts 322°
2026-05-04 13:08 49.81053 10.27113 22135 ft 349 kts 322°
2026-05-04 13:08 49.83063 10.25021 22760 ft 352 kts 322°
2026-05-04 13:08 49.85105 10.22891 23348 ft 356 kts 322°
2026-05-04 13:08 49.87125 10.20782 23917 ft 357 kts 322°
2026-05-04 13:09 49.89176 10.18640 23917 ft 359 kts 322°
2026-05-04 13:09 49.91116 10.16229 23908 ft 351 kts 307°
2026-05-04 13:09 49.92514 10.13135 23999 ft 352 kts 299°
2026-05-04 13:09 49.93844 10.09971 23933 ft 348 kts 299°
2026-05-04 13:10 49.95151 10.06844 23947 ft 349 kts 299°
2026-05-04 13:10 49.96469 10.03689 23959 ft 352 kts 299°
2026-05-04 13:10 49.97804 10.00486 23950 ft 352 kts 299°
2026-05-04 13:10 49.99130 9.97303 23949 ft 351 kts 299°
2026-05-04 13:11 50.00454 9.94120 23949 ft 351 kts 299°
2026-05-04 13:11 50.01781 9.90926 23947 ft 351 kts 299°
2026-05-04 13:11 50.03101 9.87738 23935 ft 351 kts 299°
2026-05-04 13:11 50.04435 9.84518 23952 ft 350 kts 299°